Terminal Aerodrome Forecast
Issued by NWS Miami, FL

Home | Current Version | Previous Version | Text Only | Print | Product List | Glossary On
Versions: 1 2 3 4 5 6 7 8 9 10 11 12 13 14 15 16 17 18 19 20 21 22 23 24 25 26 27 28 29 30 31 32 33 34 35 36 37 38 39 40 41 42 43 44 45 46 47 48 49 50
000
FTUS42 KMFL 270523
TAFFLL
TAF
KFLL 270523Z 2706/2806 00000KT 6SM BR FEW010 SCT020
      TEMPO 2706/2709 3SM BR SCT010 BKN020
     FM270900 00000KT 3SM BR SCT010 BKN020
      TEMPO 2709/2713 1SM BR SCT005 BKN010
     FM271400 11010KT P6SM SCT035
     FM272300 10005KT P6SM FEW030=

USA.gov is the U.S. government's official web portal to all federal, state and local government web resources and services.